TimeCDT,TemperatureF,Dew PointF,Humidity,Sea Level PressureIn,VisibilityMPH,Wind Direction,Wind SpeedMPH,Gust SpeedMPH,PrecipitationIn,Events,Conditions,WindDirDegrees,DateUTC
12:10 AM,66.2,66.2,100,30.00,10.0,NNE,5.8,-,N/A,,Clear,20,2013-07-08 05:10:00
12:30 AM,64.4,64.4,100,30.00,10.0,NNE,5.8,-,N/A,,Clear,30,2013-07-08 05:30:00
12:50 AM,64.4,64.4,100,29.99,10.0,NNE,5.8,-,N/A,,Clear,20,2013-07-08 05:50:00
1:10 AM,64.4,64.4,100,30.00,10.0,North,6.9,-,N/A,,Clear,10,2013-07-08 06:10:00
1:30 AM,64.4,64.4,100,29.99,10.0,NNE,8.1,-,N/A,,Clear,20,2013-07-08 06:30:00
1:50 AM,64.4,64.4,100,29.99,10.0,NE,4.6,-,N/A,,Clear,40,2013-07-08 06:50:00
2:10 AM,64.4,64.4,100,29.99,10.0,NNE,6.9,-,N/A,,Clear,20,2013-07-08 07:10:00
2:30 AM,62.6,62.6,100,29.99,10.0,NNE,5.8,-,N/A,,Clear,30,2013-07-08 07:30:00
2:50 AM,64.4,64.4,100,29.99,10.0,Calm,Calm,-,N/A,,Clear,0,2013-07-08 07:50:00
3:10 AM,62.6,62.6,100,29.99,10.0,NE,3.5,-,N/A,,Clear,40,2013-07-08 08:10:00
3:30 AM,62.6,62.6,100,29.98,10.0,NNE,4.6,-,N/A,,Clear,20,2013-07-08 08:30:00
3:50 AM,62.6,62.6,100,29.98,10.0,Calm,Calm,-,N/A,,Clear,0,2013-07-08 08:50:00
4:10 AM,62.6,62.6,100,29.98,10.0,NE,3.5,-,N/A,,Clear,40,2013-07-08 09:10:00
4:30 AM,62.6,62.6,100,29.98,10.0,NE,5.8,-,N/A,,Clear,50,2013-07-08 09:30:00
4:50 AM,62.6,62.6,100,29.98,10.0,NE,5.8,-,N/A,,Clear,40,2013-07-08 09:50:00
5:10 AM,62.6,62.6,100,29.98,10.0,NE,5.8,-,N/A,,Clear,50,2013-07-08 10:10:00
5:30 AM,60.8,60.8,100,29.98,10.0,ENE,5.8,-,N/A,,Clear,60,2013-07-08 10:30:00
5:50 AM,60.8,60.8,100,29.98,10.0,NE,6.9,-,N/A,,Clear,50,2013-07-08 10:50:00
6:10 AM,62.6,62.6,100,29.99,10.0,NE,5.8,-,N/A,,Clear,50,2013-07-08 11:10:00
6:30 AM,62.6,62.6,100,29.99,10.0,NNE,4.6,-,N/A,,Clear,30,2013-07-08 11:30:00
6:50 AM,64.4,64.4,100,30.00,10.0,NE,5.8,-,N/A,,Clear,40,2013-07-08 11:50:00
7:10 AM,64.4,64.4,100,30.01,10.0,ENE,5.8,-,N/A,,Clear,60,2013-07-08 12:10:00
7:30 AM,66.2,66.2,100,30.01,10.0,ENE,4.6,-,N/A,,Clear,70,2013-07-08 12:30:00
7:50 AM,66.2,66.2,100,30.01,10.0,ENE,8.1,-,N/A,,Clear,60,2013-07-08 12:50:00
8:10 AM,68.0,68.0,100,30.02,10.0,NE,8.1,-,N/A,,Clear,50,2013-07-08 13:10:00
8:30 AM,69.8,68.0,94,30.02,10.0,East,6.9,-,N/A,,Clear,90,2013-07-08 13:30:00
8:50 AM,71.6,69.8,94,30.03,10.0,East,8.1,-,N/A,,Clear,100,2013-07-08 13:50:00
9:10 AM,73.4,71.6,94,30.03,10.0,ESE,9.2,-,N/A,,Clear,110,2013-07-08 14:10:00
9:30 AM,73.4,71.6,94,30.03,10.0,ESE,6.9,-,N/A,,Clear,110,2013-07-08 14:30:00
9:50 AM,75.2,71.6,89,30.02,10.0,East,8.1,-,N/A,,Clear,80,2013-07-08 14:50:00
10:10 AM,77.0,71.6,83,30.03,10.0,East,6.9,-,N/A,,Clear,100,2013-07-08 15:10:00
10:30 AM,77.0,71.6,83,30.03,10.0,East,8.1,-,N/A,,Clear,80,2013-07-08 15:30:00
10:50 AM,78.8,71.6,78,30.02,10.0,East,9.2,-,N/A,,Clear,80,2013-07-08 15:50:00
11:10 AM,78.8,68.0,69,30.03,10.0,East,8.1,-,N/A,,Clear,90,2013-07-08 16:10:00
11:30 AM,80.6,68.0,65,30.03,10.0,East,6.9,-,N/A,,Clear,100,2013-07-08 16:30:00
11:50 AM,80.6,68.0,65,30.03,10.0,East,6.9,-,N/A,,Clear,90,2013-07-08 16:50:00
12:10 PM,80.6,68.0,65,30.03,10.0,SE,4.6,-,N/A,,Clear,130,2013-07-08 17:10:00
12:30 PM,82.4,68.0,62,30.02,10.0,SE,6.9,-,N/A,,Clear,140,2013-07-08 17:30:00
12:50 PM,82.4,68.0,62,30.01,10.0,East,8.1,-,N/A,,Clear,100,2013-07-08 17:50:00
1:10 PM,82.4,68.0,62,30.01,10.0,ESE,9.2,-,N/A,,Clear,110,2013-07-08 18:10:00
1:30 PM,84.2,68.0,58,30.01,10.0,SSE,6.9,-,N/A,,Clear,160,2013-07-08 18:30:00
1:50 PM,84.2,68.0,58,30.01,10.0,South,6.9,-,N/A,,Clear,170,2013-07-08 18:50:00
2:10 PM,84.2,68.0,58,30.00,10.0,SSE,9.2,-,N/A,,Clear,160,2013-07-08 19:10:00
2:30 PM,84.2,64.4,51,30.00,10.0,South,10.4,-,N/A,,Clear,180,2013-07-08 19:30:00
2:50 PM,84.2,66.2,55,30.00,10.0,SE,6.9,-,N/A,,Clear,140,2013-07-08 19:50:00
3:10 PM,84.2,66.2,55,30.00,10.0,SE,4.6,-,N/A,,Clear,130,2013-07-08 20:10:00
3:30 PM,86.0,66.2,51,29.99,10.0,SE,5.8,-,N/A,,Clear,140,2013-07-08 20:30:00
3:50 PM,84.2,68.0,58,29.99,10.0,SE,6.9,-,N/A,,Clear,140,2013-07-08 20:50:00
4:10 PM,84.2,68.0,58,29.99,10.0,SE,5.8,-,N/A,,Clear,130,2013-07-08 21:10:00
4:30 PM,84.2,68.0,58,29.99,10.0,Calm,Calm,-,N/A,,Clear,0,2013-07-08 21:30:00
4:50 PM,84.2,68.0,58,29.98,10.0,SE,6.9,-,N/A,,Clear,130,2013-07-08 21:50:00
5:10 PM,86.0,68.0,55,29.97,10.0,SSE,5.8,-,N/A,,Clear,160,2013-07-08 22:10:00
5:30 PM,86.0,68.0,55,29.97,10.0,SSE,5.8,-,N/A,,Clear,150,2013-07-08 22:30:00
5:50 PM,84.2,68.0,58,29.96,10.0,SSE,9.2,-,N/A,,Clear,150,2013-07-08 22:50:00
6:10 PM,84.2,68.0,58,29.96,10.0,SSE,6.9,-,N/A,,Clear,150,2013-07-08 23:10:00
6:30 PM,82.4,69.8,66,29.96,10.0,ESE,4.6,-,N/A,,Clear,120,2013-07-08 23:30:00
6:50 PM,84.2,71.6,66,29.95,10.0,SE,8.1,-,N/A,,Clear,130,2013-07-08 23:50:00
7:10 PM,82.4,69.8,66,29.96,10.0,SE,6.9,-,N/A,,Clear,130,2013-07-09 00:10:00
7:30 PM,82.4,71.6,70,29.96,10.0,SE,4.6,-,N/A,,Clear,130,2013-07-09 00:30:00
7:50 PM,80.6,73.4,79,29.95,10.0,ESE,4.6,-,N/A,,Clear,120,2013-07-09 00:50:00
8:10 PM,78.8,75.2,89,29.95,10.0,SE,5.8,-,N/A,,Clear,130,2013-07-09 01:10:00
8:30 PM,78.8,71.6,78,29.94,10.0,SE,8.1,-,N/A,,Clear,140,2013-07-09 01:30:00
8:50 PM,78.8,71.6,78,29.93,10.0,SSE,8.1,-,N/A,,Clear,150,2013-07-09 01:50:00
9:10 PM,77.0,71.6,83,29.94,10.0,SSE,6.9,-,N/A,,Clear,150,2013-07-09 02:10:00
9:30 PM,75.2,73.4,94,29.95,10.0,ESE,4.6,-,N/A,,Clear,120,2013-07-09 02:30:00
9:50 PM,75.2,75.2,100,29.95,10.0,ESE,6.9,-,N/A,,Clear,110,2013-07-09 02:50:00
10:10 PM,73.4,73.4,100,29.95,10.0,ESE,6.9,-,N/A,,Clear,120,2013-07-09 03:10:00
10:30 PM,73.4,73.4,100,29.94,10.0,SE,8.1,-,N/A,,Clear,130,2013-07-09 03:30:00
10:50 PM,73.4,73.4,100,29.93,10.0,ESE,6.9,-,N/A,,Clear,120,2013-07-09 03:50:00
11:10 PM,73.4,73.4,100,29.93,10.0,ESE,8.1,-,N/A,,Clear,110,2013-07-09 04:10:00
11:30 PM,73.4,73.4,100,29.94,10.0,East,5.8,-,N/A,,Clear,100,2013-07-09 04:30:00
11:50 PM,71.6,71.6,100,29.94,10.0,Calm,Calm,-,N/A,,Clear,0,2013-07-09 04:50:00